Skip Page Navigation
NASA JPL Caltech
NASA Logo - Jet Propulsion Laboratory + View the NASA Portal
+ Center for Near-Earth Object Studies
JPL Home Earth Solar System Stars & Galaxies Technology
JPL Solar System Dynamics
BODIES ORBITS EPHEMERIDES TOOLS PHYSICAL DATA DISCOVERY FAQ SITE MAP
IMPORTANT: The SSD Announcement email list is now available. Major changes are coming in the near future, including possible hostname and/or URL changes. To be notified of such changes, subscribe to this email list.

Please visit this page for more details.


JPL Small-Body Database Browser
Search: [ help ]  
226032 (2002 FN16)
Classification: Main-belt Asteroid          SPK-ID: 2226032
Ephemeris | Orbit Diagram | Orbital Elements | Mission Design | Physical Parameters | Discovery Circumstances ]

[ show orbit diagram ]
Orbital Elements at Epoch 2458600.5 (2019-Apr-27.0) TDB
Reference: JPL 18 (heliocentric ecliptic J2000)
 Element Value Uncertainty (1-sigma)   Units 
e .1880858616094793 3.5516e-08  
a 2.638107576209467 1.7121e-08 au
q 2.141916839719614 9.479e-08 au
i 12.92888362370303 6.7562e-06 deg
node 58.66329402540549 2.0383e-05 deg
peri 84.10207651943843 2.8139e-05 deg
M 30.23289014449511 1.8861e-05 deg
tp 2458469.063996945265
(2018-Dec-16.56399695)
8.167e-05 TDB
period 1565.082295260488
4.28
1.5236e-05
4.171e-08
d
yr
n .2300198533266792 2.2392e-09 deg/d
Q 3.13429831269932 2.0341e-08 au
  Orbit Determination Parameters
   # obs. used (total)      633  
   data-arc span      7646 days (20.93 yr)  
   first obs. used      1998-06-01  
   last obs. used      2019-05-08  
   planetary ephem.      DE431  
   SB-pert. ephem.      SB431-N16  
   condition code      0  
   norm. resid. RMS      .58694  
   source      ORB  
   producer      Otto Matic  
   solution date      2019-May-30 08:28:41  

Additional Information
 Earth MOID = 1.20025 au 
 Jupiter MOID = 2.04803 au 
 T_jup = 3.336 
[ show covariance matrix ]

Ephemeris | Orbit Diagram | Orbital Elements | Mission Design | Physical Parameters | Discovery Circumstances ]

Physical Parameter Table
Parameter Symbol Value Units Sigma Reference Notes
absolute magnitude H 15.7   n/a MPO385977  
diameter diameter 1.903 km 0.255 urn:nasa:pds:neowise_diameters_albedos::2.0[mainbelt] (http://adsabs.harvard.edu/abs/2011ApJ...741...68M)  
geometric albedo albedo 0.308   0.062 urn:nasa:pds:neowise_diameters_albedos::2.0[mainbelt] (http://adsabs.harvard.edu/abs/2011ApJ...741...68M)  

226032 (2002 FN16)          Discovered 2002-Mar-16 by NEAT at Haleakala
Reference: 20091202/Numbers.arcLast Updated: 2009-12-04

Alternate Designations
 2002 FN16 = 1998 LX3 
Ephemeris | Orbit Diagram | Orbital Elements | Mission Design | Physical Parameters | Discovery Circumstances ]
ABOUT SSD CREDITS/AWARDS PRIVACY/COPYRIGHT GLOSSARY LINKS
FirstGov 2019-Dec-11 20:24 UT
(server date/time)  
NASA Home Page
Site Manager:   Ryan S. Park
Webmaster  Alan B. Chamberlin